Home   Weather   Eisenhüttenstadt   Past weeks

Flag for Germany Past Weather in Eisenhüttenstadt, Brandenburg, Germany — Yesterday and Last 2 Weeks

Now
37 °F

Light rain. Mostly cloudy.


Feels Like: 29 °F
Forecast: 36 / 43 °F
Wind: 14 mph from Southwest

Location: Zielona Gora Airport

Current Time: Dec 7, 2016 at 9:25:52 pm

Latest Report: Dec 7, 2016 at 9:00 pm


Visibility: N/A

Pressure: 30.39 "Hg

Humidity: 87%

Dew Point: 34 °F

Location of EisenhüttenstadtLocation

Past Weather in Eisenhüttenstadt — Graph

°F

Eisenhüttenstadt Temperature Yesterday

Maximum temperature yesterday: 36 °F (at 1:00 pm)
Minimum temperature yesterday: 30 °F (at 5:30 am)
Average temperature yesterday: 34 °F

High & Low Weather Summary for the Past Weeks

 TemperatureHumidityPressure
High50 °F (Nov 23, 1:00 pm)100% (Nov 22, 8:00 pm)30.60 "Hg (Nov 22, 8:00 pm)
Low21 °F (Dec 5, 8:30 am)60% (Nov 30, 10:30 am)29.65 "Hg (Dec 1, 10:00 pm)
Average34 °F93%30.21 "Hg
* Reported Nov 22 8:00 pm — Dec 7 8:00 pm, Eisenhüttenstadt, Weather by CustomWeather, © 2016

Note: Actual official high and low records may vary slightly from our data, if they occured in-between our weather recording intervals... More about our weather records

Advertising

Eisenhüttenstadt Weather History for the Previous 24 Hours

Scroll right to see more
 ConditionsComfort  
Time TempWeatherWind HumidityBarometerVisibility
8:00 pm
Wed, Dec 7
37 °FLight rain. Overcast.10 mph87%30.39 "HgN/A
7:30 pm36 °FOvercast.10 mph93%30.39 "Hg5 mi
7:00 pm36 °FLight rain. Clear.7 mph87%30.42 "Hg4 mi
6:30 pm34 °FClear.7 mph93%30.42 "Hg5 mi
6:00 pm34 °FClear.6 mph93%30.42 "Hg5 mi
5:30 pm34 °FClear.6 mph93%30.42 "Hg5 mi
5:00 pm34 °FClear.6 mph93%30.45 "Hg5 mi
4:30 pm34 °FClear.5 mph93%30.45 "Hg5 mi
4:00 pm34 °FClear.5 mph93%30.45 "Hg5 mi
3:30 pm34 °FPassing clouds.5 mph93%30.45 "HgN/A
3:00 pm34 °FPassing clouds.7 mph93%30.48 "HgN/A
2:30 pm36 °FPassing clouds.8 mph87%30.48 "HgN/A
2:00 pm36 °FPassing clouds.7 mph87%30.48 "HgN/A
1:30 pm36 °FPassing clouds.7 mph87%30.51 "HgN/A
1:00 pm36 °FSunny.8 mph93%30.51 "Hg10 mi
12:30 pm34 °FPassing clouds.9 mph93%30.54 "Hg6 mi
12:00 pm34 °FPartly sunny.9 mph100%30.54 "Hg6 mi
11:30 am32 °FLow clouds.8 mph100%30.57 "Hg5 mi
11:00 am32 °FLow clouds.8 mph100%30.57 "Hg4 mi
10:30 am32 °FLow clouds.9 mph100%30.60 "Hg4 mi
10:00 am32 °FIce fog.8 mph100%30.60 "Hg2 mi
9:30 am30 °FIce fog.7 mph100%30.60 "Hg1 mi
9:00 am30 °FIce fog.5 mph100%30.60 "Hg1 mi
8:30 am30 °FIce fog.8 mph100%30.60 "Hg1 mi
8:00 am30 °FIce fog.7 mph100%30.60 "Hg0 mi
7:30 am30 °FIce fog.8 mph100%30.57 "Hg1 mi
7:00 am30 °FIce fog.6 mph100%30.57 "Hg1 mi
6:30 am30 °FIce fog.6 mph100%30.60 "Hg0 mi
6:00 am32 °FIce fog.6 mph100%30.60 "Hg0 mi
5:30 am32 °FIce fog.6 mph100%30.60 "Hg1 mi
10:00 pm
Tue, Dec 6
34 °FFog.6 mph100%30.57 "Hg1 mi
9:30 pm34 °FFog.6 mph100%30.54 "Hg1 mi
9:00 pm34 °FFog.3 mph100%30.54 "Hg1 mi
Weather by CustomWeather, © 2016

See weather overviewHow to use our weather pages